Zurück zum Katalog

STARLINK-33596

AktivKommunikationVLEO
NORAD 62758·PAYLOAD·🇺🇸 United States

Gestartet Jan 21, 2025 von Vandenberg Space Force Base

Loading…

Nächste Überflüge (nächste 24 Stunden)

TLE

AktuellSource: CelesTrak SupGP

Epoche: Sep 14, 2026, 22:52 UTC

1 62758C 25015A   26257.95326389 -.00050474  00000+0 -16229-2 0  2578
2 62758  53.1581 162.1010 0001202  68.7697  11.0898 15.31732152    10

Verfolge STARLINK-33596 in Echtzeit mit AllMySat

Download on the App Store